Change the Weather History Date:

Thursday, March 28, 2013

  Actual Average (KGDV) Record (KGDV)
Temperature  
Mean Temperature 40 °F -  
Max Temperature 53 °F 45 °F 71 °F (2005)
Min Temperature 26 °F 24 °F 21 °F (2001)
Degree Days  
Heating Degree Days 26    
Moisture  
Dew Point 29 °F    
Average Humidity 72    
Maximum Humidity 100    
Minimum Humidity 38    
Precipitation  
Precipitation 0.00 in - - ()
Sea Level Pressure  
Sea Level Pressure 30.08 in    
Wind  
Wind Speed 5 mph (ESE)    
Max Wind Speed 12 mph    
Max Gust Speed -    
Visibility 10 miles    
Events Rain    
Averages and records for this station are not official NWS values.
T = Trace of Precipitation, MM = Missing Value Source: NWS Daily Summary

Daily Weather History Graph

Daily Weather History Graph

Search for Another Location

Airport or City:

Trip Planner

Search our weather history database for the weather conditions in past years. The results will help you decide how hot, cold, wet, or windy it might be!

Date:

Astronomy

Mar. 28, 2013 Rise Set
Actual Time 6:42 AM MDT 7:20 PM MDT
Civil Twilight 6:11 AM MDT 7:50 PM MDT
Nautical Twilight 5:35 AM MDT 8:27 PM MDT
Astronomical Twilight 4:57 AM MDT 9:05 PM MDT
Moon 9:24 PM MDT (3/28) 7:04 AM MDT (3/28)
Length of Visible Light 13h 38m
Length of Day
12h 37m
Full, 98% of the Moon is Illuminated
Mar 28
Full
Apr 2
Last Quarter
Apr 10
New
Apr 18
First Quarter
Apr 25
Full

Hourly Weather History & Observations

Time (MDT) Temp. Windchill Dew Point Humidity Pressure Visibility Wind Dir Wind Speed Gust Speed Precip Events Conditions
12:15 AM 32.0 °F 28.7 °F 26.6 °F 80% 30.07 in 10.0 mi ESE 3.5 mph - N/A   Overcast
12:35 AM 32.0 °F - 26.6 °F 80% 30.07 in 10.0 mi Calm Calm - N/A   Overcast
12:55 AM 30.2 °F - 26.6 °F 86% 30.07 in 10.0 mi Calm Calm - N/A   Overcast
1:15 AM 32.0 °F 28.7 °F 26.6 °F 80% 30.07 in 10.0 mi SE 3.5 mph - N/A   Overcast
1:35 AM 32.0 °F 27.5 °F 28.4 °F 87% 30.08 in 10.0 mi SSE 4.6 mph - N/A   Overcast
1:55 AM 32.0 °F - 28.4 °F 87% 30.07 in 10.0 mi Calm Calm - N/A   Overcast
2:15 AM 32.0 °F 27.5 °F 26.6 °F 80% 30.07 in 10.0 mi SE 4.6 mph - N/A   Overcast
2:35 AM 30.2 °F 25.4 °F 26.6 °F 86% 30.07 in 10.0 mi SE 4.6 mph - N/A   Overcast
2:55 AM 28.4 °F 22.2 °F 26.6 °F 93% 30.06 in 10.0 mi SE 5.8 mph - N/A   Overcast
3:15 AM 28.4 °F 23.3 °F 26.6 °F 93% 30.06 in 10.0 mi SE 4.6 mph - N/A   Overcast
3:35 AM 28.4 °F 22.2 °F 26.6 °F 93% 30.06 in 10.0 mi SSE 5.8 mph - N/A   Overcast
3:55 AM 28.4 °F 19.1 °F 24.8 °F 86% 30.05 in 10.0 mi SE 10.4 mph - N/A   Mostly Cloudy
4:15 AM 30.2 °F 21.9 °F 24.8 °F 80% 30.05 in 10.0 mi SSE 9.2 mph - N/A   Clear
4:35 AM 32.0 °F 23.0 °F 24.8 °F 75% 30.05 in 10.0 mi SE 11.5 mph - N/A   Clear
4:55 AM 30.2 °F 21.9 °F 24.8 °F 80% 30.05 in 10.0 mi SSE 9.2 mph - N/A   Partly Cloudy
5:15 AM 30.2 °F 25.4 °F 24.8 °F 80% 30.05 in 10.0 mi SSE 4.6 mph - N/A   Partly Cloudy
5:35 AM 30.2 °F 26.7 °F 24.8 °F 80% 30.05 in 10.0 mi ENE 3.5 mph - N/A   Clear
5:55 AM 28.4 °F 24.6 °F 24.8 °F 86% 30.06 in 10.0 mi NE 3.5 mph - N/A   Partly Cloudy
6:15 AM 28.4 °F 24.6 °F 24.8 °F 86% 30.06 in 10.0 mi ENE 3.5 mph - N/A   Partly Cloudy
6:35 AM 26.6 °F 22.6 °F 24.8 °F 93% 30.07 in 10.0 mi SSE 3.5 mph - N/A   Clear
6:55 AM 26.6 °F 22.6 °F 24.8 °F 93% 30.07 in 10.0 mi SSE 3.5 mph - N/A   Partly Cloudy
7:15 AM 26.6 °F 22.6 °F 24.8 °F 93% 30.08 in 10.0 mi SSE 3.5 mph - N/A   Partly Cloudy
7:35 AM 28.4 °F 24.6 °F 26.6 °F 93% 30.08 in 10.0 mi South 3.5 mph - N/A   Clear
7:55 AM 32.0 °F - 26.6 °F 80% 30.09 in 10.0 mi Calm Calm - N/A   Clear
8:15 AM 32.0 °F - 26.6 °F 80% 30.09 in 10.0 mi Calm Calm - N/A   Clear
8:35 AM 33.8 °F 29.6 °F 24.8 °F 70% 30.09 in 10.0 mi SE 4.6 mph - N/A   Clear
8:55 AM 33.8 °F 30.8 °F 26.6 °F 75% 30.09 in 10.0 mi SE 3.5 mph - N/A   Clear
9:15 AM 35.6 °F 31.7 °F 26.6 °F 70% 30.09 in 10.0 mi East 4.6 mph - N/A   Clear
9:35 AM 37.4 °F 32.8 °F 28.4 °F 70% 30.09 in 10.0 mi East 5.8 mph - N/A   Clear
9:55 AM 37.4 °F 32.8 °F 28.4 °F 70% 30.10 in 10.0 mi SE 5.8 mph - N/A   Clear
10:15 AM 39.2 °F 35.9 °F 28.4 °F 65% 30.10 in 10.0 mi ESE 4.6 mph - N/A   Clear
10:35 AM 41.0 °F 38.0 °F 30.2 °F 65% 30.10 in 10.0 mi SE 4.6 mph - N/A   Clear
10:55 AM 42.8 °F 38.6 °F 30.2 °F 61% 30.11 in 10.0 mi East 6.9 mph - N/A   Clear
11:15 AM 42.8 °F 38.0 °F 28.4 °F 57% 30.11 in 10.0 mi East 8.1 mph - N/A   Clear
11:35 AM 44.6 °F 39.7 °F 28.4 °F 53% 30.11 in 10.0 mi ESE 9.2 mph - N/A   Clear
11:55 AM 46.4 °F 42.4 °F 28.4 °F 50% 30.11 in 10.0 mi East 8.1 mph - N/A   Clear
12:15 PM 46.4 °F 41.5 °F 30.2 °F 53% 30.10 in 10.0 mi ESE 10.4 mph - N/A   Partly Cloudy
12:35 PM 48.2 °F - 32.0 °F 54% 30.10 in 10.0 mi East 5.8 mph - N/A   Clear
12:55 PM 48.2 °F - 30.2 °F 50% 30.10 in 10.0 mi East 8.1 mph - N/A   Clear
1:15 PM 48.2 °F - 32.0 °F 54% 30.10 in 10.0 mi East 5.8 mph - N/A   Clear
1:35 PM 50.0 °F - 32.0 °F 50% 30.10 in 10.0 mi ESE 5.8 mph - N/A   Clear
1:55 PM 50.0 °F - 32.0 °F 50% 30.09 in 10.0 mi ESE 9.2 mph - N/A   Clear
2:15 PM 50.0 °F - 32.0 °F 50% 30.09 in 10.0 mi East 6.9 mph - N/A   Clear
2:35 PM 51.8 °F - 28.4 °F 41% 30.09 in 10.0 mi ESE 6.9 mph - N/A   Clear
2:55 PM 51.8 °F - 28.4 °F 41% 30.09 in 10.0 mi East 3.5 mph - N/A   Clear
3:15 PM 51.8 °F - 28.4 °F 41% 30.08 in 10.0 mi ESE 4.6 mph - N/A   Clear
3:35 PM 51.8 °F - 28.4 °F 41% 30.08 in 10.0 mi ESE 6.9 mph - N/A   Clear
3:55 PM 53.6 °F - 30.2 °F 41% 30.08 in 10.0 mi ESE 4.6 mph - N/A   Clear
4:15 PM 53.6 °F - 28.4 °F 38% 30.08 in 10.0 mi East 5.8 mph - N/A   Clear
4:35 PM 53.6 °F - 28.4 °F 38% 30.08 in 10.0 mi East 3.5 mph - N/A   Clear
4:55 PM 53.6 °F - 30.2 °F 41% 30.08 in 10.0 mi NE 9.2 mph - N/A   Clear
5:15 PM 53.6 °F - 32.0 °F 44% 30.07 in 10.0 mi ENE 10.4 mph - N/A Rain Light Rain
5:35 PM 51.8 °F - 32.0 °F 47% 30.07 in 10.0 mi ENE 9.2 mph - N/A   Clear
5:55 PM 50.0 °F - 32.0 °F 50% 30.08 in 10.0 mi ENE 6.9 mph - N/A   Partly Cloudy
6:15 PM 48.2 °F - 33.8 °F 58% 30.08 in 10.0 mi ENE 6.9 mph - N/A   Partly Cloudy
6:35 PM 48.2 °F - 33.8 °F 58% 30.09 in 10.0 mi East 6.9 mph - N/A   Clear
6:55 PM 44.6 °F 41.4 °F 33.8 °F 66% 30.09 in 10.0 mi ENE 5.8 mph - N/A   Partly Cloudy
7:15 PM 41.0 °F 36.4 °F 32.0 °F 70% 30.09 in 10.0 mi ENE 6.9 mph - N/A   Partly Cloudy
7:35 PM 37.4 °F 32.8 °F 32.0 °F 81% 30.09 in 10.0 mi East 5.8 mph - N/A   Clear
7:55 PM 35.6 °F 31.7 °F 32.0 °F 87% 30.09 in 10.0 mi ESE 4.6 mph - N/A   Clear
8:15 PM 33.8 °F 30.8 °F 30.2 °F 87% 30.09 in 10.0 mi East 3.5 mph - N/A   Clear
8:35 PM 35.6 °F 30.7 °F 30.2 °F 81% 30.10 in 10.0 mi East 5.8 mph - N/A   Clear
8:55 PM 35.6 °F 32.8 °F 30.2 °F 81% 30.10 in 10.0 mi ESE 3.5 mph - N/A   Clear
9:15 PM 35.6 °F 31.7 °F 32.0 °F 87% 30.11 in 10.0 mi East 4.6 mph - N/A   Clear
9:35 PM 35.6 °F 30.7 °F 32.0 °F 87% 30.11 in 10.0 mi ESE 5.8 mph - N/A   Clear
9:55 PM 32.0 °F 25.6 °F 32.0 °F 100% 30.11 in 10.0 mi ESE 6.9 mph - N/A   Clear
10:15 PM 33.8 °F 27.0 °F 32.0 °F 93% 30.11 in 9.0 mi ESE 8.1 mph - N/A   Clear
10:35 PM 35.6 °F 27.5 °F 33.8 °F 93% 30.10 in 7.0 mi ESE 11.5 mph - N/A   Partly Cloudy
10:55 PM 33.8 °F 26.4 °F 32.0 °F 93% 30.10 in 5.0 mi SE 9.2 mph - N/A   Clear
11:15 PM 32.0 °F 23.6 °F 32.0 °F 100% 30.10 in 5.0 mi SE 10.4 mph - N/A   Clear
11:35 PM 32.0 °F 24.8 °F 32.0 °F 100% 30.10 in 6.0 mi SE 8.1 mph - N/A   Clear
11:55 PM 32.0 °F 25.6 °F 32.0 °F 100% 30.09 in 5.0 mi ESE 6.9 mph - N/A   Clear